sat.trackr.live / text

‹ back to catalog

STARLINK-11327 [DTC]

NORAD 61695 · 2024-195J

PAYLOAD ACTIVE UNKNOWN

§ Identity

Operator
Country
US
Launch date
2024-10-30
Launch site
AFWTR
Launch vehicle
Mass (kg)
RCS (m²)

Purposes: comms

External: N2YO · Heavens-Above · Gunter

§ Orbital elements

Epoch: 2026-05-25T00:29:37.557312Z

Period
91.74 min
Inclination
53.1592°
Eccentricity
0.0000926
Mean motion
15.69703907 rev/d
Perigee alt
359.1 km
Apogee alt
360.4 km
Semi-major
6,737.9 km
B*
2.0467e-5
RAAN
9.8734°
Arg perigee
81.4973°
Mean anomaly
278.6150°
Rev number
9,102

§ Raw data

STARLINK-11327 [DTC]1 61695U 24195J   26145.02057358  .00001891  00000+0  20467-4 0  99972 61695  53.1592   9.8734 0000926  81.4973 278.6150 15.69703907 91022

JSON: /api/v1/satellites/61695 · /tle

For live sub-satellite position, see the globe view (requires WebGL).

§ Visibility from observer

Set your observer location to see the next 7 days of passes ≥ 10°. The values pass through the URL so the page stays shareable.

No JS? Fill the form by hand. The geolocation button needs JavaScript.